Temp
56 57 58 58 58 58 59 60 61 60 60 60 59 61 60 59 55 51 51 52 52 58 56 58 59 58 57 56 55 56 56 56 54 55 54 54 54 53 52 50 51 49 49 50 50 51 52 53 54 56 57 57 56 55 54 53 53 53 55 56 55 53 53 53 53 56 58 58 56 55 55 55 55 55
56 56 57 58 58 58 59 59 59 60 60 59 59 59 59 60 58 52 53 53 51 56 54 54 59 56 57 55 55 55 56 54 56 55 55 54 55 51 51 50 50 49 49 48 47 49 50 51 53 56 56 54 53 54 54 53 53 55 55 53 54 55 55 54 56 58 57 57 56 55 55 55 55 55
56 57 57 57 58 58 59 59 59 59 59 59 59 58 58 56 56 56 55 54 55 55 57 56 55 58 56 57 56 56 55 56 55 54 54 55 53 53 53 51 50 50 50 48 50 53 52 51 51 52 54 55 54 54 54 55 55 56 54 51 52 54 54 54 55 57 57 57 57 56 55 55 55 54
55 56 57 57 58 58 59 59 59 59 59 59 60 59 58 55 55 56 55 56 57 54 56 55 56 57 56 56 57 57 57 56 54 54 53 54 54 55 55 51 49 49 49 49 50 52 52 51 53 53 55 53 52 53 50 53 55 52 50 50 51 52 53 53 53 56 56 55 55 55 54 54 54 54
55 56 57 56 56 58 59 58 58 59 59 58 59 59 58 56 55 57 53 55 55 55 51 53 56 56 57 57 57 58 56 56 56 55 54 54 54 54 54 54 50 49 48 48 48 48 47 48 51 48 46 48 48 47 48 50 49 50 51 49 48 48 51 52 51 51 54 55 55 54 54 53 53 53
54 55 56 56 56 57 59 58 59 59 58 59 60 59 58 58 56 56 54 53 55 56 54 55 54 56 57 60 56 58 56 56 55 57 56 54 54 54 54 55 54 49 50 48 48 48 48 48 48 48 48 48 48 49 49 48 48 48 47 46 46 50 52 52 51 50 52 54 53 53 53 53 52 53
54 55 55 54 55 56 57 56 57 56 58 59 60 59 58 58 57 57 56 54 55 55 55 53 56 56 56 58 59 57 57 56 56 57 57 57 56 56 55 55 55 51 49 48 49 49 49 49 48 48 48 48 47 47 48 48 48 47 46 45 47 48 47 47 47 47 48 51 53 53 53 52 52 54
55 55 55 54 55 56 56 55 55 55 56 57 58 58 57 57 56 56 54 57 54 54 57 53 59 56 56 56 56 58 57 56 56 58 57 56 57 56 57 56 57 53 50 49 50 50 50 49 48 48 48 48 48 48 48 47 47 46 46 46 45 45 45 45 45 45 47 48 51 52 52 52 52 55
56 56 57 54 54 55 56 54 55 55 56 57 57 57 57 57 56 56 56 56 54 56 56 55 54 53 56 56 56 58 58 56 56 56 57 58 58 56 55 57 57 52 49 50 50 49 49 49 49 48 48 48 48 47 47 47 47 47 47 47 46 45 45 45 45 45 45 45 46 49 51 50 51 55
53 56 56 54 54 55 56 54 53 53 55 54 55 56 56 57 56 56 55 55 56 58 57 56 55 54 56 56 56 56 57 57 56 56 56 56 54 56 56 55 56 56 56 55 55 51 52 50 49 48 49 48 47 48 47 48 47 47 47 46 46 46 45 45 44 44 44 44 44 45 46 49 51 53
53 53 54 53 53 54 54 55 55 54 53 55 54 54 54 55 55 55 56 56 55 55 55 54 54 55 53 55 57 56 56 56 57 57 55 55 54 52 54 56 56 55 55 52 50 50 50 50 52 49 49 48 47 48 47 47 47 47 46 46 46 46 46 45 45 45 45 44 44 44 44 45 48 50
54 54 54 53 53 54 53 54 54 55 55 53 54 52 54 54 54 54 54 54 54 54 54 55 54 52 53 53 52 53 56 58 56 55 55 55 53 53 51 52 54 54 54 55 56 52 52 51 50 49 49 48 47 47 48 48 48 47 46 45 45 45 45 45 45 45 45 45 45 44 44 44 43 46
53 53 53 52 51 55 56 53 52 53 54 55 55 53 53 53 54 54 53 54 53 53 54 53 50 53 53 52 53 53 53 55 57 53 51 50 50 52 53 53 52 52 54 53 53 54 51 53 52 53 53 52 50 50 48 49 47 46 45 45 45 45 45 45 45 45 45 45 45 44 44 44 44 43
54 52 52 54 58 56 55 52 49 48 50 52 56 55 53 54 54 54 54 53 54 53 54 54 53 53 53 51 52 52 51 50 49 51 52 52 49 50 51 52 51 50 53 53 53 53 51 51 52 52 52 51 50 51 52 51 50 47 45 45 45 45 45 45 45 45 45 45 45 44 44 44 43 43
55 52 52 52 53 55 55 52 46 46 46 48 48 48 51 54 56 54 53 53 53 54 54 52 52 54 53 52 50 51 51 48 52 52 51 50 49 51 51 51 51 50 50 50 51 52 50 50 52 51 51 50 50 50 51 46 46 45 45 44 44 45 45 45 45 45 45 45 45 44 44 44 44 43
54 54 54 53 52 52 54 53 52 49 46 45 44 44 44 45 47 50 56 54 51 52 53 51 53 53 54 52 49 49 49 49 48 48 50 50 51 50 50 49 50 50 48 50 50 51 50 47 50 50 50 50 50 50 47 45 45 45 45 45 44 45 45 44 45 44 44 44 44 44 44 44 43 42
55 55 54 54 53 54 57 56 52 53 52 46 44 44 44 44 44 43 43 47 58 55 55 54 52 52 51 50 50 50 51 51 51 49 51 49 49 49 50 48 47 50 46 47 48 50 49 46 49 51 49 49 49 49 47 45 45 45 45 45 44 44 44 44 44 44 44 43 44 43 43 43 42 42
55 55 55 55 56 55 56 55 52 52 52 51 51 52 52 52 48 43 42 41 44 50 57 55 54 51 51 54 52 51 50 52 51 52 50 48 48 49 49 47 46 46 45 49 48 47 49 45 48 50 51 48 49 49 47 44 44 44 44 44 44 44 43 44 43 43 43 43 43 43 43 43 42 42
56 56 55 55 56 56 54 55 52 53 52 51 52 51 51 51 50 50 50 50 51 52 52 54 55 52 51 52 51 49 48 52 51 52 51 50 49 45 44 45 45 47 46 44 48 48 48 43 49 48 50 48 49 49 46 44 43 43 44 43 43 43 43 43 43 43 43 43 43 43 43 42 41 41
55 55 54 54 54 55 54 51 45 48 53 52 52 51 49 48 47 46 44 40 41 46 49 51 51 50 50 47 49 47 46 45 46 47 47 48 47 48 48 47 43 45 46 45 47 45 47 43 46 48 48 47 49 50 49 44 43 44 44 43 43 43 43 43 43 43 43 43 43 43 42 42 41 41
54 54 54 54 54 54 54 49 42 43 47 52 52 51 49 48 48 46 45 41 40 40 40 40 41 40 40 41 41 41 43 47 48 50 50 48 47 48 47 44 43 44 43 45 45 45 46 44 44 45 47 47 47 48 49 47 43 42 43 43 43 43 43 43 43 43 43 43 43 43 42 42 41 41
52 53 52 54 54 54 54 46 42 41 47 52 52 51 49 48 49 46 44 45 42 40 40 40 40 40 40 40 40 41 41 41 45 52 50 47 46 47 46 46 43 42 43 44 44 46 45 42 42 43 45 43 44 44 44 45 46 44 45 44 43 43 42 42 43 43 43 43 43 43 42 42 42 46
51 51 51 50 51 53 52 45 42 40 46 53 52 51 49 49 49 47 44 45 45 45 46 46 47 44 44 45 46 44 41 41 43 47 49 46 48 46 44 43 43 44 43 44 45 45 43 43 44 41 43 42 45 41 43 45 47 48 48 47 47 43 42 42 42 42 43 43 42 42 42 41 42 47
51 50 50 48 42 41 42 43 41 40 41 52 52 51 51 51 50 46 45 46 46 46 46 44 43 42 42 43 44 45 45 44 44 43 44 45 46 45 44 43 45 45 43 44 44 44 42 41 43 41 42 40 38 43 45 46 46 47 47 46 46 44 43 43 43 43 42 42 41 41 41 41 41 46
50 51 51 50 45 40 40 41 41 40 40 44 52 51 52 53 48 43 45 45 43 44 43 43 43 43 43 43 44 44 44 44 44 43 41 42 44 45 44 44 43 43 42 44 42 45 43 41 41 41 41 40 41 40 41 41 45 45 46 45 44 46 46 46 45 46 43 41 41 40 41 41 41 43
49 50 49 48 44 40 39 39 39 39 39 40 50 50 45 42 39 47 47 46 45 44 43 43 43 43 43 43 43 43 44 44 43 44 44 43 42 43 45 46 44 42 43 43 40 44 42 41 42 40 39 38 39 40 38 40 42 44 44 44 45 45 44 44 44 44 45 45 46 44 44 41 41 41
49 48 46 46 43 41 40 40 39 39 38 40 45 42 42 39 40 42 45 44 44 41 42 42 41 41 42 42 41 42 42 41 42 43 43 44 45 44 43 42 43 44 43 42 44 43 42 41 40 40 39 40 37 38 38 37 39 43 42 44 44 44 45 44 42 43 44 44 45 42 41 41 40 40
45 46 45 43 40 41 40 40 39 39 39 42 40 41 38 39 41 43 43 43 43 42 41 41 40 40 40 41 40 41 41 42 41 41 41 41 42 42 42 42 42 42 42 42 42 42 42 42 41 41 40 39 37 36 35 40 40 40 39 43 43 43 44 43 43 42 43 44 44 45 45 44 46 45
44 41 40 40 40 39 40 39 39 39 39 39 39 38 38 42 44 44 43 42 43 42 41 40 40 39 40 41 41 40 39 39 40 41 39 39 39 39 40 40 40 40 40 41 41 41 42 41 41 41 39 39 38 38 37 37 38 39 40 39 39 42 43 43 42 42 43 44 44 43 43 43 43 44
36 37 37 37 37 38 39 41 43 43 40 38 38 38 40 43 42 42 42 42 43 42 40 40 40 39 39 39 39 39 39 40 40 40 41 42 41 42 43 43 43 42 39 39 40 40 40 40 40 39 39 39 39 38 39 38 38 40 39 38 39 40 42 41 42 42 42 42 42 42 43 43 42 42
39 39 39 38 37 38 37 37 38 39 39 41 42 42 42 42 41 40 39 39 40 39 39 39 38 38 38 38 38 38 39 38 38 40 41 41 41 41 41 41 40 41 42 40 39 39 41 40 40 39 38 39 39 39 40 39 37 38 39 40 39 35 39 41 41 41 42 41 41 42 42 43 43 42
40 39 38 38 39 40 40 41 41 40 39 39 38 40 40 40 40 40 40 39 37 37 37 37 36 36 37 38 38 38 38 38 38 39 40 40 39 38 38 38 38 38 39 40 41 40 38 40 40 41 39 39 37 39 39 39 38 38 38 39 39 40 40 39 40 41 41 41 40 41 42 41 41 42
40 40 39 38 39 38 37 37 38 38 39 38 40 41 41 40 41 41 41 39 37 37 36 36 37 37 37 36 36 37 37 37 37 37 39 38 39 36 38 39 39 38 38 39 39 40 40 40 39 39 40 40 40 38 37 36 39 40 38 39 39 39 40 41 41 40 41 39 38 39 39 41 42 43
36 35 36 38 38 38 38 38 38 39 39 38 39 38 38 39 40 39 39 39 38 38 37 37 37 37 36 35 34 35 37 36 36 36 36 38 38 39 38 38 38 37 37 37 38 38 39 39 39 40 39 39 39 39 40 38 37 40 40 39 38 38 41 42 42 41 39 37 35 34 36 38 41 43
36 38 38 38 37 37 38 38 39 39 39 39 38 38 38 38 38 38 37 36 37 37 37 36 36 35 35 35 35 35 35 36 35 35 34 36 37 39 38 38 38 38 37 37 38 38 37 38 38 38 40 40 40 42 42 41 40 39 40 40 41 40 40 41 40 40 38 38 38 34 34 36 38 41
36 37 37 37 37 37 37 38 39 39 39 39 39 39 39 38 38 38 37 36 37 37 36 36 35 35 35 35 34 34 33 32 35 35 34 35 35 35 37 37 37 37 37 37 37 38 37 37 37 36 35 35 35 34 37 42 41 41 38 37 40 40 40 40 39 38 37 37 37 35 33 32 34 38
37 35 36 36 36 37 37 38 38 39 39 39 39 40 39 38 37 37 36 36 36 37 37 36 36 36 35 34 32 31 31 33 34 32 33 33 35 36 36 35 35 36 36 37 37 37 37 37 37 36 34 33 32 31 34 38 39 41 41 38 38 39 38 37 36 36 37 37 36 36 33 31 32 36
37 35 35 35 36 36 37 38 38 38 38 38 39 39 39 38 37 36 37 36 36 36 36 36 35 34 33 32 33 32 31 31 32 32 33 34 35 35 34 36 35 35 36 37 37 37 37 37 37 36 35 32 30 31 32 37 38 39 40 40 36 36 37 35 34 34 35 38 36 35 34 32 34 36
37 37 37 37 36 37 37 38 38 38 37 38 38 38 36 36 36 35 36 36 35 36 36 35 35 34 33 32 32 32 31 32 33 33 33 34 35 34 34 34 34 35 35 36 38 38 38 37 37 37 35 33 32 33 33 32 33 38 39 39 37 35 36 35 34 35 35 35 35 37 37 39 38 36
36 36 37 37 37 36 37 37 37 37 37 37 37 37 37 37 36 36 36 35 35 35 36 35 33 32 33 32 31 31 32 32 32 33 33 32 32 33 34 33 34 35 35 35 36 36 38 38 38 37 36 36 37 38 36 35 35 37 37 37 38 36 36 35 34 35 36 37 36 34 35 36 36 38
36 37 38 38 38 38 37 37 37 36 37 37 37 36 36 36 36 36 36 36 35 35 35 34 34 34 33 33 33 34 32 29 29 30 30 30 31 32 33 33 35 36 36 35 36 36 38 40 38 34 36 37 36 36 36 35 35 38 39 39 38 36 36 36 37 37 35 34 33 34 33 33 33 35
38 38 37 37 37 38 38 37 36 36 37 36 36 36 35 36 36 36 35 34 34 35 35 34 34 33 32 32 32 31 32 31 32 31 30 31 33 33 33 35 36 36 35 35 35 36 40 40 37 37 38 36 36 34 33 34 34 36 38 39 40 37 36 36 35 35 37 35 35 34 33 33 34 34
34 35 36 36 37 37 37 37 37 37 36 36 36 36 36 36 36 35 35 35 35 35 35 33 33 34 33 32 31 32 32 31 31 31 30 31 34 36 36 36 35 35 35 36 37 37 38 37 38 37 38 37 36 34 32 34 35 35 36 38 39 40 38 37 36 35 35 35 35 35 35 32 30 28
32 32 32 33 33 34 35 36 37 36 36 35 36 36 35 35 36 36 36 36 36 35 33 32 32 33 32 30 29 30 32 32 30 31 32 33 34 35 35 36 35 35 35 36 36 37 38 38 38 38 37 37 36 34 33 34 35 36 36 36 37 37 38 39 38 36 35 34 34 34 35 35 35 34
33 33 33 33 33 34 34 35 35 35 36 36 36 35 35 35 35 35 34 34 33 32 31 31 31 32 31 30 32 33 31 30 31 32 33 33 34 35 35 35 35 34 35 36 35 36 38 38 38 37 37 37 36 35 35 34 34 35 35 35 35 37 38 36 37 38 38 40 38 34 34 34 34 34
MSLP
1021.77 1021.93 1022.01 1022.05 1022.29 1022.45 1022.53 1022.65 1022.81 1023.01 1023.25 1023.33 1023.45 1023.45 1023.53 1023.81 1024.73 1025.69 1025.81 1025.73 1025.77 1025.73 1025.81 1025.69 1025.81 1026.09 1026.25 1026.37 1026.45 1026.37 1026.37 1026.37 1026.37 1026.41 1026.45 1026.49 1026.53 1026.61 1026.65 1026.77 1026.85 1027.01 1027.09 1027.21 1027.29 1027.33 1027.37 1027.41 1027.41 1027.41 1027.37 1027.41 1027.41 1027.37 1027.37 1027.37 1027.33 1027.29 1027.25 1027.21 1027.17 1027.13 1027.05 1026.97 1026.93 1026.85 1026.81 1026.81 1026.81 1026.73 1026.69 1026.61 1026.57 1026.49
1021.81 1021.93 1022.05 1022.17 1022.37 1022.53 1022.57 1022.73 1022.89 1023.05 1023.25 1023.45 1023.57 1023.69 1023.89 1023.89 1024.17 1024.77 1025.29 1025.61 1025.73 1025.49 1025.81 1025.89 1025.69 1026.13 1026.21 1026.41 1026.49 1026.53 1026.53 1026.57 1026.49 1026.53 1026.53 1026.61 1026.65 1026.77 1026.81 1026.89 1027.01 1027.09 1027.17 1027.29 1027.37 1027.45 1027.53 1027.57 1027.57 1027.57 1027.61 1027.61 1027.61 1027.57 1027.53 1027.53 1027.49 1027.41 1027.41 1027.37 1027.33 1027.29 1027.21 1027.17 1027.09 1027.01 1026.97 1026.93 1026.89 1026.81 1026.73 1026.65 1026.57 1026.53
1021.93 1021.97 1022.13 1022.33 1022.41 1022.57 1022.69 1022.85 1023.05 1023.17 1023.33 1023.49 1023.65 1023.85 1024.01 1024.25 1024.37 1024.29 1024.81 1025.33 1025.45 1025.57 1025.49 1025.65 1025.97 1025.85 1026.17 1026.33 1026.41 1026.53 1026.61 1026.65 1026.69 1026.69 1026.73 1026.81 1026.89 1026.93 1027.01 1027.09 1027.13 1027.21 1027.25 1027.33 1027.41 1027.45 1027.53 1027.61 1027.65 1027.69 1027.69 1027.73 1027.73 1027.73 1027.65 1027.61 1027.57 1027.53 1027.53 1027.53 1027.49 1027.41 1027.37 1027.29 1027.21 1027.13 1027.09 1027.05 1026.97 1026.93 1026.81 1026.73 1026.65 1026.57
1022.01 1022.05 1022.13 1022.29 1022.41 1022.57 1022.73 1022.89 1023.01 1023.17 1023.33 1023.45 1023.65 1023.85 1024.09 1024.29 1024.45 1024.49 1024.49 1024.61 1024.93 1025.57 1025.41 1025.53 1025.69 1025.93 1025.97 1026.33 1026.25 1026.41 1026.61 1026.73 1026.77 1026.85 1026.93 1027.01 1027.09 1027.17 1027.25 1027.29 1027.33 1027.37 1027.41 1027.49 1027.53 1027.53 1027.57 1027.61 1027.61 1027.65 1027.65 1027.69 1027.73 1027.73 1027.73 1027.65 1027.61 1027.61 1027.57 1027.53 1027.53 1027.49 1027.45 1027.41 1027.33 1027.25 1027.21 1027.17 1027.13 1027.05 1026.97 1026.89 1026.77 1026.65
1021.97 1022.09 1022.21 1022.45 1022.57 1022.61 1022.69 1022.93 1023.09 1023.25 1023.37 1023.57 1023.73 1023.93 1024.17 1024.37 1024.53 1024.41 1024.53 1024.73 1025.13 1025.53 1026.05 1025.73 1025.65 1025.97 1026.01 1026.13 1026.25 1026.21 1026.41 1026.57 1026.73 1026.85 1026.97 1027.09 1027.17 1027.29 1027.41 1027.49 1027.53 1027.57 1027.61 1027.65 1027.61 1027.61 1027.61 1027.61 1027.61 1027.65 1027.69 1027.77 1027.77 1027.73 1027.69 1027.65 1027.65 1027.61 1027.57 1027.57 1027.57 1027.57 1027.53 1027.49 1027.45 1027.41 1027.37 1027.29 1027.21 1027.17 1027.13 1027.05 1026.93 1026.81
1022.13 1022.21 1022.29 1022.49 1022.61 1022.69 1022.77 1022.97 1023.13 1023.29 1023.49 1023.65 1023.81 1023.97 1024.09 1024.29 1024.45 1024.45 1024.33 1024.89 1024.85 1025.17 1025.65 1025.65 1026.09 1026.09 1026.13 1025.85 1026.29 1026.13 1026.21 1026.41 1026.69 1026.69 1026.85 1027.05 1027.21 1027.29 1027.45 1027.49 1027.53 1027.61 1027.61 1027.61 1027.61 1027.61 1027.61 1027.57 1027.57 1027.57 1027.69 1027.73 1027.73 1027.65 1027.57 1027.53 1027.53 1027.53 1027.53 1027.57 1027.57 1027.57 1027.53 1027.53 1027.49 1027.49 1027.41 1027.37 1027.33 1027.25 1027.21 1027.17 1027.05 1026.89
1022.21 1022.21 1022.37 1022.53 1022.65 1022.77 1022.89 1023.09 1023.21 1023.37 1023.49 1023.65 1023.73 1023.81 1024.05 1024.13 1024.29 1024.33 1024.29 1024.45 1024.81 1025.05 1025.29 1025.65 1025.69 1025.89 1026.01 1025.93 1026.05 1026.37 1026.49 1026.57 1026.65 1026.61 1026.77 1026.89 1027.05 1027.13 1027.25 1027.29 1027.37 1027.45 1027.45 1027.45 1027.49 1027.53 1027.49 1027.45 1027.41 1027.45 1027.45 1027.45 1027.49 1027.49 1027.49 1027.49 1027.41 1027.37 1027.41 1027.45 1027.49 1027.49 1027.53 1027.53 1027.49 1027.49 1027.45 1027.37 1027.29 1027.25 1027.21 1027.21 1027.09 1026.89
1022.13 1022.21 1022.33 1022.53 1022.61 1022.69 1022.85 1023.09 1023.25 1023.41 1023.53 1023.61 1023.73 1023.89 1024.05 1024.17 1024.33 1024.41 1024.45 1024.13 1024.33 1024.93 1025.01 1025.57 1025.37 1025.65 1025.65 1025.97 1026.09 1026.21 1026.41 1026.41 1026.49 1026.49 1026.57 1026.73 1026.73 1026.89 1027.01 1027.09 1027.13 1027.21 1027.29 1027.29 1027.29 1027.29 1027.33 1027.37 1027.37 1027.37 1027.41 1027.41 1027.37 1027.37 1027.37 1027.37 1027.33 1027.29 1027.25 1027.29 1027.33 1027.41 1027.45 1027.45 1027.45 1027.41 1027.37 1027.33 1027.29 1027.21 1027.21 1027.17 1027.09 1026.85
1022.17 1022.25 1022.29 1022.57 1022.69 1022.65 1022.73 1022.97 1023.05 1023.33 1023.37 1023.57 1023.73 1023.77 1023.97 1024.09 1024.21 1024.41 1024.45 1024.37 1024.33 1024.61 1024.81 1025.09 1025.61 1025.77 1025.85 1025.93 1026.05 1026.13 1026.17 1026.53 1026.57 1026.69 1026.57 1026.57 1026.61 1026.77 1026.93 1027.01 1027.05 1027.09 1027.17 1027.17 1027.21 1027.25 1027.25 1027.25 1027.29 1027.37 1027.37 1027.37 1027.37 1027.37 1027.37 1027.33 1027.29 1027.25 1027.21 1027.21 1027.25 1027.33 1027.37 1027.41 1027.41 1027.37 1027.33 1027.29 1027.29 1027.25 1027.17 1027.13 1027.09 1026.85
1022.41 1022.29 1022.37 1022.57 1022.69 1022.73 1022.73 1023.01 1023.21 1023.37 1023.41 1023.61 1023.69 1023.81 1023.93 1024.01 1024.17 1024.29 1024.41 1024.45 1024.41 1024.41 1024.61 1024.77 1025.13 1025.65 1025.53 1025.73 1025.77 1025.97 1025.97 1026.01 1026.29 1026.53 1026.69 1026.73 1026.81 1026.77 1026.85 1027.01 1027.05 1027.05 1027.13 1027.21 1027.13 1027.09 1027.13 1027.25 1027.37 1027.41 1027.41 1027.45 1027.45 1027.45 1027.41 1027.37 1027.29 1027.25 1027.21 1027.17 1027.21 1027.25 1027.29 1027.33 1027.33 1027.33 1027.29 1027.25 1027.21 1027.21 1027.13 1027.05 1027.01 1026.85
1022.53 1022.53 1022.53 1022.57 1022.65 1022.61 1022.73 1022.85 1023.01 1023.21 1023.41 1023.49 1023.61 1023.77 1023.89 1024.05 1024.09 1024.21 1024.29 1024.41 1024.41 1024.53 1024.73 1025.05 1025.05 1025.09 1025.61 1025.57 1025.41 1025.89 1026.01 1025.93 1025.85 1025.89 1026.21 1026.37 1026.93 1026.97 1026.73 1026.85 1027.09 1027.17 1027.21 1027.21 1027.13 1027.29 1027.37 1027.45 1027.45 1027.57 1027.57 1027.57 1027.57 1027.57 1027.49 1027.41 1027.33 1027.29 1027.29 1027.25 1027.29 1027.29 1027.33 1027.33 1027.33 1027.29 1027.25 1027.17 1027.13 1027.09 1027.05 1027.01 1026.93 1026.81
1022.45 1022.49 1022.53 1022.53 1022.57 1022.57 1022.69 1022.73 1022.89 1023.05 1023.17 1023.49 1023.49 1023.81 1023.89 1024.01 1024.05 1024.13 1024.33 1024.41 1024.49 1024.57 1024.69 1024.65 1024.77 1025.05 1025.13 1025.53 1025.77 1026.09 1026.01 1025.81 1025.97 1025.89 1025.77 1025.85 1026.37 1026.77 1027.09 1027.13 1027.05 1027.17 1027.17 1027.05 1027.17 1027.41 1027.45 1027.53 1027.65 1027.65 1027.65 1027.69 1027.73 1027.65 1027.53 1027.49 1027.41 1027.41 1027.41 1027.41 1027.45 1027.45 1027.41 1027.37 1027.33 1027.25 1027.17 1027.09 1027.01 1026.93 1026.89 1026.81 1026.81 1026.73
1022.49 1022.49 1022.53 1022.53 1022.57 1022.65 1022.69 1022.81 1022.81 1022.85 1022.89 1023.01 1023.21 1023.61 1023.69 1023.77 1023.89 1024.09 1024.29 1024.33 1024.41 1024.57 1024.57 1024.61 1024.89 1024.93 1025.05 1025.13 1025.25 1025.53 1025.61 1025.37 1025.05 1025.65 1025.93 1026.01 1026.77 1027.05 1027.01 1027.37 1027.49 1027.45 1027.13 1027.25 1027.33 1027.57 1027.81 1027.73 1027.81 1027.81 1027.73 1027.81 1027.77 1027.69 1027.65 1027.61 1027.57 1027.57 1027.53 1027.57 1027.57 1027.53 1027.49 1027.41 1027.33 1027.21 1027.17 1027.09 1027.05 1026.97 1026.85 1026.73 1026.65 1026.57
1022.29 1022.33 1022.37 1022.45 1022.45 1022.45 1022.49 1022.53 1022.65 1022.73 1022.77 1022.77 1022.73 1022.93 1023.33 1023.45 1023.65 1023.81 1023.97 1024.21 1024.29 1024.41 1024.41 1024.37 1024.61 1024.73 1024.81 1024.93 1025.01 1025.05 1025.17 1025.45 1025.85 1025.77 1025.81 1025.85 1027.05 1027.05 1027.01 1027.37 1027.61 1027.61 1027.25 1027.21 1027.37 1027.77 1027.97 1027.89 1027.97 1027.89 1027.89 1028.01 1027.89 1027.81 1027.73 1027.77 1027.69 1027.69 1027.65 1027.61 1027.53 1027.49 1027.41 1027.29 1027.21 1027.13 1027.09 1027.05 1027.01 1026.93 1026.81 1026.69 1026.53 1026.41
1022.29 1022.29 1022.25 1022.29 1022.33 1022.37 1022.37 1022.49 1022.57 1022.65 1022.73 1022.77 1022.81 1022.89 1022.93 1022.97 1023.09 1023.49 1023.81 1023.85 1024.17 1024.05 1024.01 1024.41 1024.61 1024.33 1024.41 1024.69 1025.13 1024.97 1025.13 1025.69 1025.45 1025.49 1025.81 1026.13 1026.65 1026.33 1026.41 1026.57 1027.45 1027.73 1027.65 1027.33 1027.41 1027.77 1028.01 1027.93 1027.85 1028.09 1028.05 1028.09 1028.05 1028.01 1028.01 1028.01 1027.89 1027.77 1027.69 1027.57 1027.49 1027.41 1027.33 1027.25 1027.21 1027.13 1027.09 1027.05 1026.97 1026.89 1026.77 1026.61 1026.45 1026.29
1021.97 1022.25 1022.37 1022.41 1022.49 1022.49 1022.45 1022.45 1022.53 1022.61 1022.69 1022.77 1022.85 1022.89 1022.97 1023.05 1023.09 1023.05 1023.09 1023.49 1024.09 1024.09 1024.01 1024.29 1024.09 1024.21 1024.17 1024.33 1025.21 1025.13 1025.49 1025.49 1025.81 1025.89 1025.89 1026.05 1026.01 1026.09 1026.17 1026.37 1026.65 1027.77 1027.93 1027.45 1027.45 1027.73 1028.09 1028.13 1027.89 1027.97 1028.13 1028.13 1028.13 1028.13 1028.09 1028.05 1027.93 1027.81 1027.73 1027.61 1027.53 1027.45 1027.37 1027.29 1027.21 1027.17 1027.09 1027.01 1026.93 1026.77 1026.61 1026.45 1026.33 1026.17
1021.93 1022.09 1022.25 1022.33 1022.37 1022.41 1022.57 1022.61 1022.61 1022.53 1022.57 1022.85 1023.01 1023.09 1023.21 1023.25 1023.21 1023.13 1023.13 1023.01 1022.89 1023.25 1023.57 1023.57 1023.89 1023.93 1024.09 1024.41 1024.69 1024.93 1024.85 1025.37 1025.17 1025.77 1025.69 1025.89 1025.93 1026.05 1026.17 1026.89 1027.65 1027.69 1028.13 1027.73 1027.49 1027.45 1028.01 1028.21 1027.81 1027.77 1028.17 1028.13 1028.09 1028.09 1028.05 1028.01 1027.97 1027.85 1027.77 1027.65 1027.57 1027.49 1027.37 1027.29 1027.17 1027.09 1026.97 1026.89 1026.73 1026.57 1026.41 1026.29 1026.17 1026.05
1022.09 1022.29 1022.37 1022.33 1022.21 1022.29 1022.45 1022.57 1022.57 1022.53 1022.61 1022.73 1022.89 1023.01 1023.05 1023.01 1023.21 1023.33 1023.29 1023.21 1023.21 1023.09 1022.97 1023.17 1023.17 1023.81 1024.21 1023.61 1024.09 1024.85 1025.17 1024.89 1025.01 1025.17 1025.45 1025.89 1026.13 1026.41 1026.85 1027.65 1027.97 1028.33 1028.29 1027.69 1027.57 1027.65 1027.93 1028.29 1027.89 1027.69 1027.81 1028.09 1028.01 1027.97 1027.93 1027.93 1027.85 1027.81 1027.73 1027.61 1027.53 1027.45 1027.33 1027.21 1027.09 1026.97 1026.81 1026.69 1026.57 1026.45 1026.33 1026.21 1026.09 1025.93
1022.05 1022.21 1022.45 1022.49 1022.37 1022.33 1022.49 1022.53 1022.65 1022.69 1022.73 1022.85 1022.93 1023.01 1023.01 1023.13 1023.29 1023.37 1023.41 1023.49 1023.49 1023.41 1023.37 1023.17 1023.17 1023.57 1024.33 1024.21 1024.41 1024.97 1025.37 1025.09 1025.05 1025.05 1025.17 1025.57 1026.21 1027.21 1027.93 1028.05 1028.21 1028.21 1028.33 1028.17 1027.81 1027.41 1027.93 1028.37 1027.85 1027.81 1027.81 1027.89 1027.81 1027.81 1027.81 1027.81 1027.77 1027.77 1027.69 1027.61 1027.53 1027.37 1027.25 1027.09 1026.97 1026.85 1026.73 1026.65 1026.53 1026.45 1026.33 1026.17 1026.05 1025.93
1022.13 1022.37 1022.49 1022.53 1022.53 1022.45 1022.45 1022.49 1022.65 1022.69 1022.89 1022.97 1023.01 1023.05 1023.21 1023.37 1023.57 1023.65 1024.13 1024.09 1024.01 1024.01 1023.77 1023.69 1023.81 1023.89 1023.93 1024.01 1024.37 1024.69 1024.85 1025.41 1025.81 1025.89 1026.13 1026.33 1026.65 1026.85 1027.21 1027.37 1028.09 1028.17 1028.37 1028.29 1027.73 1027.81 1027.85 1028.45 1028.13 1027.85 1027.81 1027.85 1027.69 1027.53 1027.57 1027.61 1027.69 1027.73 1027.69 1027.61 1027.49 1027.33 1027.21 1027.09 1026.93 1026.81 1026.69 1026.61 1026.49 1026.37 1026.25 1026.09 1025.97 1025.85
1022.09 1022.17 1022.29 1022.45 1022.45 1022.41 1022.37 1022.41 1022.57 1022.69 1022.85 1022.85 1022.93 1023.01 1023.21 1023.45 1023.45 1023.53 1024.09 1024.13 1023.97 1023.81 1023.65 1023.81 1023.97 1024.13 1024.25 1024.41 1024.53 1024.73 1024.85 1025.09 1025.49 1025.61 1025.89 1026.21 1026.49 1026.41 1026.65 1027.45 1027.89 1028.05 1028.49 1028.37 1028.21 1028.05 1027.85 1028.29 1028.25 1028.01 1027.81 1027.77 1027.61 1027.41 1027.29 1027.49 1027.61 1027.65 1027.65 1027.53 1027.41 1027.25 1027.13 1026.97 1026.85 1026.73 1026.61 1026.49 1026.37 1026.25 1026.13 1025.97 1025.85 1025.73
1022.33 1022.21 1022.29 1022.33 1022.33 1022.25 1022.13 1022.21 1022.41 1022.57 1022.73 1022.73 1022.73 1022.93 1023.13 1023.25 1023.25 1023.57 1024.09 1024.09 1024.29 1024.25 1024.13 1024.17 1024.37 1024.37 1024.53 1024.73 1025.01 1025.17 1025.21 1025.41 1025.41 1025.13 1025.17 1025.85 1026.25 1025.97 1026.09 1026.25 1027.45 1028.17 1028.29 1028.33 1028.33 1027.85 1027.93 1028.33 1028.33 1028.17 1027.85 1027.77 1027.57 1027.37 1027.53 1027.57 1027.53 1027.49 1027.37 1027.29 1027.21 1027.09 1026.97 1026.89 1026.73 1026.61 1026.45 1026.29 1026.17 1026.05 1025.93 1025.81 1025.73 1025.53
1022.45 1022.29 1022.17 1022.09 1022.01 1021.97 1021.89 1022.01 1022.17 1022.37 1022.53 1022.45 1022.61 1022.69 1022.97 1022.89 1022.93 1023.21 1023.77 1023.61 1023.97 1024.17 1024.17 1024.49 1024.57 1024.81 1025.01 1025.09 1025.17 1025.41 1025.45 1025.49 1025.49 1025.41 1025.37 1026.13 1025.81 1025.89 1026.33 1026.73 1027.41 1027.41 1028.01 1028.33 1028.29 1027.85 1028.09 1028.13 1028.29 1028.49 1027.89 1027.53 1027.25 1027.61 1027.61 1027.45 1027.41 1027.37 1027.29 1027.13 1027.05 1026.93 1026.85 1026.73 1026.61 1026.41 1026.29 1026.13 1026.01 1025.93 1025.81 1025.65 1025.53 1025.29
1022.29 1022.21 1022.09 1021.97 1022.01 1021.97 1021.93 1021.97 1022.01 1022.21 1022.37 1022.21 1022.37 1022.65 1022.61 1022.61 1022.41 1023.65 1024.25 1024.29 1024.29 1024.25 1024.17 1024.61 1024.85 1025.17 1025.37 1025.29 1025.33 1025.53 1025.69 1025.85 1025.93 1025.97 1026.05 1025.97 1025.81 1025.97 1026.49 1026.89 1027.05 1027.05 1027.77 1028.29 1028.29 1028.05 1028.45 1028.65 1028.33 1028.73 1028.49 1028.37 1027.69 1027.37 1027.49 1027.45 1027.53 1027.41 1027.25 1027.09 1026.97 1026.81 1026.73 1026.57 1026.41 1026.29 1026.17 1026.01 1025.93 1025.77 1025.61 1025.41 1025.29 1025.09
1022.29 1022.01 1021.85 1021.85 1021.97 1022.05 1022.01 1021.97 1021.97 1022.09 1022.25 1022.21 1022.21 1022.33 1022.13 1021.85 1022.41 1023.17 1023.53 1023.97 1024.13 1024.25 1024.57 1024.73 1025.01 1025.25 1025.45 1025.65 1025.81 1026.01 1026.17 1026.21 1026.29 1026.29 1026.33 1026.29 1026.21 1026.25 1026.69 1027.05 1027.29 1027.49 1028.05 1028.21 1028.33 1028.25 1028.29 1028.69 1028.57 1028.65 1028.57 1028.65 1028.21 1027.97 1027.69 1027.93 1027.61 1027.49 1027.25 1027.17 1027.01 1026.73 1026.61 1026.41 1026.33 1026.17 1026.01 1025.89 1025.77 1025.61 1025.41 1025.21 1025.09 1025.05
1022.09 1022.01 1022.01 1022.05 1022.09 1022.09 1022.09 1022.21 1022.37 1022.49 1022.45 1022.41 1022.33 1022.25 1022.25 1022.49 1022.61 1022.89 1023.33 1023.85 1024.25 1024.41 1024.57 1024.85 1025.21 1025.53 1025.69 1025.97 1026.17 1026.33 1026.41 1026.45 1026.45 1026.41 1026.49 1026.57 1026.69 1026.81 1026.85 1026.89 1027.21 1027.53 1027.89 1028.25 1028.41 1028.33 1028.49 1028.53 1028.49 1028.65 1028.69 1028.69 1028.21 1028.29 1027.97 1027.65 1027.61 1027.37 1027.29 1027.09 1026.89 1026.61 1026.53 1026.41 1026.37 1026.21 1025.97 1025.77 1025.53 1025.33 1025.21 1025.09 1024.97 1024.81
1022.01 1022.05 1022.09 1022.05 1022.05 1021.97 1021.89 1021.89 1021.93 1022.09 1022.45 1022.81 1022.61 1022.33 1022.53 1022.97 1023.25 1023.33 1023.49 1023.81 1024.17 1024.65 1024.97 1025.13 1025.41 1025.81 1025.97 1026.17 1026.45 1026.41 1026.45 1026.69 1026.69 1026.77 1026.85 1026.89 1026.93 1027.05 1027.29 1027.49 1027.61 1027.69 1028.05 1028.29 1028.37 1028.45 1028.53 1028.61 1028.65 1028.65 1028.57 1028.53 1028.49 1028.17 1028.21 1027.89 1027.37 1027.29 1027.13 1026.89 1026.69 1026.49 1026.33 1026.37 1026.33 1026.13 1025.89 1025.69 1025.41 1025.25 1025.05 1024.85 1024.73 1024.61
1022.45 1022.17 1021.93 1021.97 1021.97 1021.89 1021.85 1021.77 1021.73 1021.81 1022.01 1022.17 1022.37 1022.65 1022.93 1023.09 1023.45 1024.09 1024.21 1023.97 1024.05 1024.33 1024.69 1025.13 1025.57 1025.93 1026.13 1026.17 1026.41 1026.57 1026.65 1026.77 1026.93 1027.05 1027.09 1027.17 1027.37 1027.57 1027.81 1027.97 1028.01 1028.05 1028.13 1028.25 1028.37 1028.41 1028.49 1028.57 1028.53 1028.45 1028.61 1028.57 1028.53 1028.33 1028.01 1027.61 1027.61 1027.33 1027.01 1026.61 1026.61 1026.33 1026.21 1026.21 1026.17 1026.01 1025.81 1025.57 1025.33 1025.05 1024.89 1024.65 1024.45 1024.29
1022.61 1022.37 1022.13 1021.89 1021.81 1021.81 1021.77 1021.73 1021.77 1021.85 1021.85 1021.97 1022.17 1022.45 1022.85 1023.17 1023.49 1023.77 1024.13 1024.13 1024.29 1024.53 1024.89 1025.33 1025.73 1026.17 1026.37 1026.29 1026.41 1026.69 1026.85 1027.05 1027.09 1027.17 1027.53 1027.77 1027.97 1028.13 1028.13 1028.09 1028.09 1028.13 1028.21 1028.29 1028.37 1028.41 1028.45 1028.49 1028.45 1028.49 1028.61 1028.53 1028.45 1028.21 1028.17 1027.69 1027.49 1027.09 1026.89 1026.85 1026.49 1026.21 1026.13 1026.05 1026.13 1026.01 1025.73 1025.49 1025.17 1025.01 1024.89 1024.73 1024.49 1024.25
1022.73 1022.37 1022.25 1022.13 1022.05 1021.97 1021.97 1021.89 1021.81 1021.77 1021.81 1021.77 1021.69 1021.85 1022.29 1022.85 1023.25 1023.73 1024.17 1024.33 1024.17 1024.57 1025.25 1025.61 1025.93 1026.33 1026.65 1026.73 1026.85 1026.97 1027.01 1026.97 1027.17 1027.37 1027.65 1027.81 1027.93 1027.89 1027.85 1027.97 1028.09 1028.21 1028.29 1028.33 1028.29 1028.37 1028.45 1028.49 1028.49 1028.53 1028.49 1028.33 1028.21 1028.05 1027.77 1027.57 1027.13 1026.85 1026.85 1026.89 1026.61 1026.41 1026.17 1026.13 1025.97 1025.81 1025.69 1025.41 1025.17 1025.01 1024.73 1024.57 1024.45 1024.37
1022.53 1022.45 1022.37 1022.37 1022.41 1022.41 1022.49 1022.45 1022.41 1022.29 1022.25 1022.17 1022.33 1022.41 1022.41 1022.65 1023.05 1023.69 1024.25 1024.69 1024.93 1025.17 1025.49 1025.85 1026.25 1026.77 1027.13 1027.33 1027.29 1027.17 1027.09 1027.21 1027.49 1027.53 1027.57 1027.69 1027.77 1027.81 1027.97 1028.05 1028.25 1028.21 1028.25 1028.29 1028.33 1028.37 1028.33 1028.33 1028.33 1028.37 1028.25 1027.97 1027.81 1027.65 1027.41 1027.49 1027.29 1026.93 1026.77 1026.61 1026.61 1026.69 1026.09 1025.97 1025.81 1025.69 1025.61 1025.41 1025.13 1024.85 1024.61 1024.41 1024.21 1024.09
1022.65 1022.53 1022.57 1022.49 1022.49 1022.53 1022.61 1022.77 1022.81 1022.77 1022.77 1022.73 1022.57 1022.61 1022.69 1022.89 1023.17 1023.45 1023.81 1024.29 1024.81 1025.65 1026.17 1026.49 1026.65 1027.21 1027.57 1027.49 1027.37 1027.33 1027.25 1027.37 1027.69 1027.93 1027.81 1027.73 1027.85 1028.05 1028.13 1028.25 1028.37 1028.45 1028.37 1028.29 1028.21 1028.29 1028.33 1028.25 1028.13 1028.05 1027.97 1027.81 1027.69 1027.37 1027.41 1027.33 1027.05 1026.89 1026.85 1026.53 1026.45 1026.29 1026.17 1026.01 1025.73 1025.49 1025.49 1025.41 1025.01 1024.65 1024.49 1024.37 1024.13 1023.81
1022.85 1022.65 1022.57 1022.45 1022.37 1022.33 1022.29 1022.57 1022.93 1023.29 1023.21 1023.05 1022.97 1022.77 1022.73 1022.93 1023.09 1023.33 1023.45 1023.81 1024.49 1025.17 1025.81 1026.25 1026.57 1027.01 1027.29 1027.53 1027.69 1027.65 1027.65 1027.77 1028.01 1028.29 1028.01 1028.01 1027.85 1028.37 1028.33 1028.05 1028.21 1028.25 1028.33 1028.29 1028.41 1028.21 1028.05 1027.97 1027.97 1027.85 1027.61 1027.45 1027.41 1027.49 1027.49 1027.29 1026.73 1026.61 1026.65 1026.37 1026.33 1026.13 1025.85 1025.69 1025.65 1025.53 1025.45 1025.33 1025.09 1024.81 1024.49 1024.13 1023.89 1023.69
1022.49 1022.69 1022.49 1022.37 1022.21 1022.29 1022.33 1022.33 1022.61 1022.93 1023.29 1023.57 1023.65 1023.49 1023.05 1022.85 1022.93 1023.05 1023.33 1023.85 1024.57 1025.13 1025.25 1025.53 1026.09 1026.73 1027.29 1027.65 1027.89 1027.81 1027.69 1028.01 1028.25 1028.37 1028.13 1028.01 1028.13 1028.09 1028.05 1028.01 1028.09 1028.41 1028.57 1028.41 1028.29 1028.13 1027.97 1027.81 1027.65 1027.37 1027.25 1027.13 1027.05 1027.05 1027.05 1027.13 1026.77 1026.37 1026.21 1026.29 1026.25 1026.05 1025.65 1025.53 1025.41 1025.45 1025.53 1025.53 1025.37 1024.97 1024.45 1024.05 1023.73 1023.53
1022.41 1022.45 1022.33 1022.45 1022.77 1022.77 1022.57 1022.33 1022.41 1022.53 1022.61 1023.01 1023.29 1023.61 1023.45 1023.21 1023.13 1023.41 1023.85 1024.33 1024.57 1024.85 1025.17 1025.53 1026.01 1026.65 1027.21 1027.61 1027.93 1027.61 1027.69 1027.85 1028.21 1028.37 1028.53 1028.41 1028.25 1028.05 1028.09 1028.01 1028.09 1028.17 1028.29 1028.25 1028.01 1027.97 1027.93 1027.65 1027.49 1027.09 1026.65 1026.61 1026.57 1026.53 1026.57 1026.57 1026.61 1026.29 1026.13 1026.01 1025.93 1025.85 1025.57 1025.45 1025.49 1025.41 1025.45 1025.25 1025.09 1024.93 1024.57 1024.21 1023.85 1023.53
1022.49 1022.61 1022.49 1022.61 1022.77 1023.09 1023.05 1022.97 1023.05 1023.01 1022.77 1022.81 1022.65 1022.85 1022.97 1023.01 1023.21 1023.37 1023.69 1024.05 1024.25 1024.73 1025.17 1025.69 1026.33 1026.85 1027.25 1027.49 1027.61 1027.65 1027.73 1028.01 1028.13 1028.29 1028.41 1028.37 1028.25 1028.37 1028.29 1028.13 1028.09 1028.13 1028.21 1028.21 1027.97 1027.89 1027.77 1027.53 1027.49 1027.21 1027.05 1026.89 1026.93 1026.69 1026.29 1026.25 1026.33 1026.29 1026.29 1026.05 1025.85 1025.73 1025.65 1025.57 1025.53 1025.53 1025.37 1025.17 1025.01 1025.01 1024.81 1024.53 1024.21 1023.81
1022.41 1022.73 1022.85 1022.77 1023.09 1023.21 1023.05 1023.21 1023.33 1023.29 1023.29 1023.33 1023.13 1022.93 1022.77 1023.01 1023.37 1023.41 1023.73 1024.09 1024.37 1024.81 1025.13 1025.57 1026.17 1026.73 1027.01 1027.37 1027.57 1027.57 1027.69 1027.85 1027.97 1028.25 1028.21 1028.33 1028.25 1028.09 1027.93 1028.01 1028.09 1028.33 1028.33 1028.09 1027.97 1027.73 1027.61 1027.37 1027.33 1027.29 1027.29 1027.25 1027.29 1027.29 1026.57 1026.09 1026.17 1026.17 1026.13 1026.21 1025.97 1025.81 1025.81 1025.77 1025.73 1025.57 1025.29 1025.21 1025.09 1024.97 1025.01 1024.85 1024.53 1024.01
1023.01 1023.21 1023.13 1023.13 1023.13 1023.21 1023.29 1023.29 1023.29 1023.37 1023.41 1023.41 1023.33 1023.29 1023.41 1023.49 1023.65 1023.93 1024.09 1024.17 1024.49 1024.97 1025.45 1025.81 1026.33 1026.73 1027.05 1027.33 1027.13 1027.49 1027.89 1028.17 1028.21 1028.25 1028.25 1028.13 1027.93 1028.01 1028.05 1027.93 1028.21 1028.53 1028.41 1027.97 1027.69 1027.49 1027.37 1027.25 1027.17 1027.21 1027.37 1027.45 1027.37 1027.17 1026.77 1026.01 1025.97 1025.89 1026.01 1026.17 1026.25 1025.93 1025.85 1025.89 1025.81 1025.65 1025.37 1025.13 1025.13 1024.97 1024.89 1024.77 1024.33 1023.93
1023.01 1022.85 1022.69 1022.65 1022.77 1023.01 1023.05 1023.05 1023.17 1023.29 1023.45 1023.45 1023.41 1023.41 1023.53 1023.81 1024.09 1024.33 1024.45 1024.57 1024.85 1025.13 1025.49 1025.81 1026.25 1026.69 1027.05 1027.33 1027.45 1027.53 1027.73 1028.05 1028.13 1028.13 1028.09 1028.01 1027.97 1027.97 1028.05 1028.21 1028.41 1028.45 1028.29 1027.69 1027.25 1027.05 1027.01 1026.93 1026.97 1027.09 1027.29 1027.41 1027.33 1027.17 1027.17 1027.13 1026.61 1025.85 1025.69 1026.05 1026.21 1026.09 1025.85 1025.81 1025.77 1025.61 1025.45 1025.29 1025.05 1024.81 1024.45 1024.21 1024.01 1023.89
1023.17 1023.13 1022.93 1022.89 1022.89 1023.17 1023.21 1023.25 1023.25 1023.29 1023.33 1023.45 1023.57 1023.65 1023.81 1024.05 1024.21 1024.41 1024.77 1025.17 1025.45 1025.65 1025.81 1026.13 1026.65 1027.05 1027.21 1027.37 1027.49 1027.89 1027.93 1027.89 1027.93 1027.97 1027.93 1028.01 1028.05 1028.09 1028.21 1028.49 1028.49 1028.33 1027.97 1027.57 1027.09 1026.73 1026.69 1026.69 1026.85 1027.01 1027.13 1027.13 1027.05 1026.97 1026.97 1026.97 1026.65 1026.13 1025.85 1025.61 1025.65 1025.73 1025.65 1025.69 1025.77 1025.61 1025.29 1025.17 1025.13 1024.85 1024.37 1024.01 1023.81 1023.61
1023.29 1023.21 1023.09 1023.05 1023.05 1023.13 1023.17 1023.17 1023.17 1023.29 1023.41 1023.61 1023.69 1023.73 1023.85 1024.21 1024.41 1024.73 1025.13 1025.41 1025.73 1026.17 1026.45 1026.69 1026.89 1026.89 1027.05 1027.37 1027.49 1027.49 1027.69 1028.17 1028.21 1028.09 1028.05 1027.93 1028.05 1028.21 1028.21 1028.33 1028.29 1028.13 1027.81 1027.33 1026.97 1026.69 1026.49 1026.57 1026.77 1026.97 1027.05 1026.93 1026.89 1026.89 1026.69 1026.41 1025.93 1025.33 1025.29 1025.33 1025.45 1025.45 1025.45 1025.53 1025.49 1025.49 1025.37 1025.41 1025.29 1024.93 1024.57 1024.41 1024.33 1023.89
1023.29 1023.21 1023.09 1023.09 1023.01 1023.09 1023.17 1023.13 1023.21 1023.29 1023.33 1023.57 1023.77 1023.93 1024.05 1024.33 1024.57 1024.89 1025.33 1025.85 1026.21 1026.41 1026.65 1026.89 1027.09 1027.21 1027.37 1027.57 1027.73 1027.89 1027.85 1028.01 1027.97 1028.05 1028.05 1027.93 1027.85 1028.05 1028.21 1028.17 1027.97 1027.93 1027.69 1027.21 1026.89 1026.61 1026.49 1026.65 1026.77 1026.77 1026.73 1026.69 1026.65 1026.53 1026.33 1026.25 1026.13 1025.65 1025.45 1025.33 1025.17 1025.29 1025.33 1025.33 1025.37 1025.37 1025.33 1025.29 1025.09 1024.81 1024.61 1024.29 1024.29 1023.89
1023.57 1023.53 1023.45 1023.33 1023.25 1023.25 1023.29 1023.29 1023.37 1023.45 1023.57 1023.77 1023.93 1024.17 1024.33 1024.69 1025.01 1025.17 1025.25 1025.73 1026.01 1026.21 1026.45 1026.81 1027.13 1027.17 1027.33 1027.57 1027.77 1027.77 1027.93 1028.05 1027.97 1028.01 1028.05 1028.01 1027.81 1027.61 1027.73 1027.97 1027.97 1027.85 1027.57 1027.13 1026.77 1026.65 1026.57 1026.61 1026.61 1026.53 1026.45 1026.45 1026.49 1026.61 1026.49 1026.29 1026.09 1025.89 1025.61 1025.29 1025.09 1025.05 1025.17 1025.21 1025.21 1025.17 1025.17 1025.13 1025.01 1024.89 1024.81 1024.85 1024.85 1024.49
1024.25 1024.05 1024.05 1024.01 1023.77 1023.65 1023.61 1023.53 1023.53 1023.65 1023.77 1023.97 1024.17 1024.45 1024.77 1025.25 1025.65 1025.73 1025.53 1025.65 1025.85 1026.09 1026.57 1026.97 1027.29 1027.29 1027.37 1027.57 1027.73 1027.81 1027.93 1028.01 1028.09 1027.97 1027.85 1027.85 1027.89 1028.05 1028.05 1027.93 1027.81 1027.61 1027.29 1026.97 1026.73 1026.45 1026.33 1026.41 1026.37 1026.41 1026.33 1026.25 1026.33 1026.45 1026.33 1026.21 1025.93 1025.69 1025.57 1025.41 1025.25 1025.09 1024.97 1024.85 1024.85 1024.89 1024.85 1024.77 1024.73 1024.73 1024.69 1024.65 1024.57 1024.53
1024.81 1024.65 1024.45 1024.33 1024.25 1024.17 1024.09 1024.05 1023.97 1023.97 1024.01 1024.13 1024.33 1024.57 1024.93 1025.25 1025.61 1025.93 1026.09 1026.05 1026.21 1026.49 1026.77 1027.05 1027.25 1027.45 1027.57 1027.73 1027.65 1027.61 1027.89 1028.25 1028.29 1028.17 1027.93 1027.81 1028.05 1028.17 1028.13 1027.89 1027.57 1027.21 1026.89 1026.85 1026.77 1026.45 1026.29 1026.33 1026.29 1026.33 1026.29 1026.17 1026.21 1026.21 1026.09 1026.05 1025.93 1025.77 1025.53 1025.41 1025.21 1024.93 1024.89 1024.97 1024.77 1024.53 1024.45 1024.09 1024.13 1024.33 1024.41 1024.41 1024.41 1024.37
Wind_Speed
4 4 6 5 5 5 4 5 6 6 5 4 5 4 8 8 8 5 3 3 3 3 2 3 1 2 2 2 0 2 2 3 3 3 4 5 5 6 8 8 8 8 9 8 7 7 7 7 7 7 7 7 7 7 6 7 7 7 8 7 7 7 7 6 6 7 9 10 10 10 10 10 11 11
4 4 5 5 5 4 5 6 6 6 6 6 5 3 3 3 9 5 5 4 3 3 2 1 3 1 2 1 1 1 2 2 3 3 3 4 4 6 6 7 7 7 8 8 8 7 6 6 6 6 6 5 4 4 4 4 4 5 6 6 6 6 6 6 5 7 7 8 8 8 9 10 10 11
4 5 6 4 5 5 6 6 5 5 6 6 5 4 4 2 2 7 5 5 4 3 4 4 2 3 3 2 2 1 1 1 2 2 2 2 3 4 4 5 5 6 6 7 6 7 6 5 5 4 3 4 3 3 2 1 2 3 3 3 4 4 5 5 5 6 6 6 7 8 9 10 10 11
4 5 6 5 6 5 6 6 6 6 5 6 5 4 5 3 4 4 5 5 6 4 3 3 3 3 4 3 4 3 1 1 3 1 1 1 1 1 1 3 4 4 5 5 5 5 6 4 4 4 3 3 3 3 3 2 1 0 1 1 2 2 3 3 4 4 4 5 6 7 7 9 9 9
5 5 5 5 4 5 7 5 5 5 5 5 4 4 4 4 4 5 4 5 4 1 0 1 3 2 4 3 3 4 2 2 2 2 1 2 1 0 1 1 3 3 3 4 4 5 4 4 2 3 2 3 3 3 4 4 3 3 3 3 3 2 3 3 2 3 4 4 4 5 6 7 8 9
4 5 6 5 5 4 6 6 5 5 5 5 5 4 5 5 5 4 4 2 5 6 2 2 2 2 2 4 2 5 5 3 2 2 1 1 1 1 0 1 1 4 2 2 2 3 2 1 1 1 3 3 2 3 4 5 5 4 4 5 4 4 4 4 3 3 4 4 5 5 5 6 7 8
5 6 5 4 4 4 5 4 4 4 5 4 6 6 5 6 6 5 4 4 4 7 5 3 4 4 4 5 4 3 1 1 2 3 1 0 1 1 1 0 0 0 0 2 2 3 1 1 3 6 7 7 6 4 3 4 5 5 5 5 5 5 5 4 5 5 5 6 6 6 6 6 7 7
5 6 6 4 5 5 5 5 5 4 4 5 5 5 5 5 5 4 3 3 5 5 6 5 5 5 6 4 1 3 3 3 3 3 2 2 2 1 1 1 1 2 4 2 2 1 1 3 5 7 7 7 7 7 8 6 5 5 4 3 4 4 5 5 6 6 6 6 7 7 7 6 8 7
5 5 5 5 5 5 5 4 4 4 6 5 5 6 5 5 4 4 4 3 3 6 7 5 2 2 1 1 2 3 4 1 1 1 0 1 1 2 1 1 1 1 1 3 3 3 4 6 8 8 8 8 8 8 7 6 4 4 4 2 0 3 4 5 6 6 7 7 7 7 8 7 7 9
2 4 5 5 5 5 5 4 3 2 4 3 4 5 5 4 4 5 5 4 4 5 6 6 4 2 4 2 2 3 4 5 3 1 1 2 3 1 3 2 1 2 2 1 2 5 6 8 9 10 9 8 8 7 6 6 7 7 7 7 5 2 3 4 6 6 7 7 7 7 7 8 8 8
2 3 4 5 5 5 5 6 6 5 4 3 3 3 5 5 6 6 6 4 5 5 5 2 2 4 0 3 4 1 2 3 3 5 3 2 2 2 2 4 2 1 2 4 9 8 7 8 6 7 9 9 8 6 7 8 8 8 9 8 7 6 4 4 4 5 6 7 7 8 8 8 8 9
3 3 3 3 4 4 5 6 6 6 6 5 5 3 4 5 6 6 5 5 5 5 5 4 4 3 3 1 2 1 3 3 0 2 4 5 3 2 3 3 2 2 2 4 4 5 5 6 7 7 7 8 7 7 7 10 9 9 10 9 8 8 7 6 5 4 5 5 6 7 7 8 7 8
4 4 4 3 3 3 4 5 5 5 6 6 6 4 5 5 5 5 4 4 5 4 5 4 2 4 4 4 5 4 4 7 7 4 3 3 2 3 5 3 4 2 2 2 4 5 4 2 4 3 4 4 5 6 6 7 8 9 9 9 8 7 7 7 6 6 6 6 6 6 7 7 8 8
3 3 3 3 4 5 7 7 7 7 7 6 5 7 7 7 6 6 6 5 5 5 5 5 6 6 6 6 6 6 4 2 3 4 5 6 3 3 4 3 3 4 2 3 4 3 3 2 3 3 4 3 3 3 3 3 3 6 7 7 7 7 7 7 7 6 6 6 6 6 6 7 8 8
3 2 2 2 2 4 6 7 8 7 6 4 6 9 9 9 9 7 6 6 6 6 6 4 4 6 7 6 5 5 4 3 5 5 5 6 5 5 5 3 0 3 3 3 2 2 3 1 3 2 2 2 2 2 2 1 4 5 5 5 5 5 5 5 5 5 5 5 6 6 7 7 8 8
4 3 3 2 1 2 3 4 5 4 4 4 5 8 8 8 7 7 8 7 5 5 6 5 7 6 7 6 6 4 5 5 4 4 6 5 5 5 3 3 3 1 2 2 2 2 1 1 2 3 1 1 1 1 1 1 2 3 4 3 3 2 2 2 3 3 4 6 7 8 8 9 9 9
3 4 4 5 3 3 4 4 3 4 3 2 3 5 5 6 7 7 6 7 7 7 7 7 7 8 6 6 7 7 8 6 8 5 5 3 4 4 5 2 2 2 3 2 1 2 1 2 1 2 2 0 0 0 1 3 2 0 1 1 0 1 1 2 3 3 5 6 8 9 10 10 10 11
4 4 4 5 6 5 3 2 3 3 3 3 3 4 4 4 2 0 3 5 5 7 7 8 8 7 6 7 7 6 6 9 8 7 6 5 5 5 5 4 4 1 2 2 3 0 0 2 1 2 1 1 1 1 2 3 3 4 3 3 3 4 4 4 5 5 6 7 8 9 10 11 11 11
5 5 5 6 7 6 4 4 4 4 5 5 4 4 4 3 1 1 2 2 1 2 3 5 5 6 4 4 7 6 1 2 4 4 6 6 6 7 5 4 2 2 3 2 1 2 0 2 2 1 2 2 2 1 3 4 4 4 6 6 6 7 7 7 7 7 8 8 9 9 10 10 11 11
4 2 4 5 6 6 6 6 9 7 5 6 6 6 5 2 1 2 2 4 2 2 1 2 4 6 7 8 10 9 9 8 6 7 7 8 7 7 5 4 1 2 2 3 1 1 0 0 0 2 2 2 4 3 2 3 3 4 6 7 8 8 9 9 8 8 9 9 10 10 10 10 11 10
5 4 5 5 6 6 7 7 11 11 9 7 7 7 6 4 3 1 3 7 7 7 11 11 11 10 11 11 11 10 11 10 8 8 7 5 6 6 4 2 2 1 2 2 2 2 1 1 1 3 2 3 4 5 3 1 1 5 6 7 8 8 9 9 9 9 10 10 11 11 11 11 11 11
6 7 7 7 7 7 8 7 11 11 10 7 8 7 7 6 6 3 2 4 6 9 12 13 12 12 11 12 11 9 9 8 4 7 6 7 5 5 3 4 2 1 1 2 1 1 1 1 0 3 3 2 3 2 1 1 3 4 5 8 10 11 10 10 10 10 11 12 12 11 11 12 11 6
5 7 7 10 10 8 8 9 10 11 10 8 8 8 8 8 9 8 7 7 7 7 9 7 9 9 8 8 7 7 10 8 5 2 6 6 5 4 3 5 3 1 1 1 1 1 1 2 1 2 5 2 2 0 1 2 4 5 6 6 6 9 10 11 11 11 12 12 12 12 12 12 10 5
7 6 7 7 9 11 12 10 10 11 13 10 7 7 9 9 10 5 4 2 6 7 8 7 7 7 5 7 7 7 7 6 5 5 5 4 5 6 6 3 2 1 1 1 0 1 0 1 2 1 1 5 4 1 3 4 4 6 5 6 4 8 9 10 8 11 12 12 13 12 12 12 11 5
7 7 6 6 6 8 10 11 11 11 13 12 8 9 10 11 7 12 8 8 7 8 8 7 7 6 6 5 5 5 4 4 4 4 4 4 6 8 7 5 3 2 1 0 1 1 1 0 2 0 1 2 4 6 0 2 4 5 6 4 5 6 6 6 6 7 9 11 11 12 12 11 12 8
6 7 5 5 4 5 5 6 6 7 9 11 8 8 7 7 15 11 7 7 7 7 7 7 6 5 5 5 5 5 5 4 5 6 6 6 6 4 5 5 5 2 2 1 2 1 1 1 1 1 2 2 4 3 8 4 3 5 3 4 6 7 5 6 5 6 6 6 6 7 9 13 13 13
6 4 4 4 4 3 2 2 5 5 4 3 6 5 1 3 7 8 8 8 8 8 7 7 8 6 5 6 5 5 6 5 5 5 5 5 6 6 5 5 3 3 3 2 1 2 2 1 1 1 3 3 6 5 4 7 6 2 5 6 7 7 6 5 6 6 6 6 6 10 9 9 9 10
6 5 5 4 2 1 3 4 6 7 7 6 6 2 11 14 10 4 6 6 7 8 8 7 6 5 4 6 6 5 5 5 5 5 6 6 6 5 4 4 4 3 2 2 2 2 2 2 2 2 2 4 5 7 11 7 6 7 8 6 6 7 5 5 6 5 5 5 6 6 6 7 7 7
5 7 7 1 2 2 3 5 5 4 8 10 9 11 12 9 5 5 4 6 6 7 7 6 5 5 4 4 5 5 6 6 5 6 5 4 3 2 3 3 3 2 2 1 1 2 2 2 3 2 1 2 3 5 6 9 8 8 6 8 8 6 8 5 3 4 6 6 7 6 6 6 7 6
7 5 5 5 4 2 1 2 1 2 2 7 11 13 14 9 8 5 4 5 7 7 6 5 6 5 4 5 5 5 6 7 6 6 5 4 3 3 4 4 2 2 2 2 1 0 1 1 2 1 2 3 3 5 6 7 8 7 6 6 7 7 4 3 5 5 5 7 7 7 6 6 6 6
3 5 5 5 7 7 8 7 6 6 6 8 7 7 7 8 8 7 5 3 3 4 6 7 6 5 4 4 5 5 5 5 3 3 5 4 3 3 2 3 1 1 2 3 2 1 1 1 1 2 2 4 4 5 6 5 8 7 6 6 6 8 6 7 5 4 5 6 7 6 5 5 5 4
2 4 3 5 5 5 6 5 5 5 5 5 6 6 6 7 8 10 13 11 9 7 5 6 7 6 5 4 4 4 3 4 3 2 4 4 3 2 3 2 1 1 2 3 4 2 1 1 2 2 3 4 5 4 3 5 7 7 8 6 5 5 4 5 6 6 5 8 8 8 6 6 6 6
2 4 4 4 4 3 3 3 4 4 3 2 4 7 8 8 8 7 8 9 9 10 9 9 8 7 4 3 2 3 3 3 3 1 1 1 4 1 1 2 2 1 1 2 2 3 3 2 1 2 4 4 4 5 5 8 6 4 4 6 5 8 7 5 5 6 8 8 8 8 9 9 9 8
3 2 1 1 2 2 3 3 3 3 3 1 1 2 3 7 7 7 8 9 9 8 8 9 8 6 4 3 3 3 4 2 1 1 1 1 2 2 1 1 1 1 1 2 3 3 3 3 4 3 2 4 3 5 5 6 7 6 6 5 6 8 8 8 6 6 6 5 6 8 8 9 8 8
1 1 2 1 0 1 4 4 5 5 6 5 4 1 2 5 7 7 8 8 8 8 8 7 6 6 5 5 4 4 4 4 2 1 1 0 1 2 2 2 1 1 1 2 3 3 3 3 4 4 3 3 5 1 6 7 5 7 8 8 7 7 8 6 7 8 7 7 6 7 8 8 8 7
1 2 2 2 2 1 1 2 0 1 3 5 7 7 6 6 6 8 8 8 9 8 8 7 6 6 5 4 4 3 3 2 2 2 1 1 1 1 1 1 1 1 2 2 3 2 2 2 3 6 7 9 10 9 4 5 7 5 7 7 7 8 8 8 8 7 6 7 7 6 7 9 9 8
2 1 1 2 1 2 2 1 1 2 1 1 2 4 4 5 3 5 7 7 8 7 7 8 7 6 5 4 3 3 3 3 3 2 2 1 1 1 1 1 1 1 3 3 2 2 1 2 2 4 5 6 9 9 10 2 4 5 5 6 7 8 8 8 7 6 5 6 7 6 6 7 7 7
0 0 2 3 3 3 3 3 1 1 1 2 3 2 3 4 5 6 7 8 8 7 7 6 5 5 4 4 5 3 2 1 2 2 1 1 1 1 1 0 1 2 3 4 3 2 1 1 2 2 4 4 6 7 9 8 7 1 5 3 7 7 6 5 5 5 6 6 6 7 6 6 7 5
3 3 4 5 5 5 5 4 3 3 3 3 3 2 2 4 5 5 5 5 6 6 6 6 5 5 5 4 3 5 5 3 2 2 2 1 1 2 0 0 1 2 2 3 3 2 1 2 2 2 4 4 5 6 5 6 7 9 4 4 6 6 5 3 4 5 5 5 6 8 6 5 6 8
3 3 4 4 4 3 3 2 3 4 5 4 3 4 4 4 5 5 4 4 4 4 5 4 5 5 4 4 5 3 2 3 4 2 2 2 1 1 0 1 1 2 3 2 3 2 3 3 3 4 5 6 5 5 5 6 8 8 8 7 7 6 3 2 3 4 5 4 5 7 8 7 4 3
4 4 5 4 3 3 4 4 4 4 4 4 4 4 5 5 5 4 4 4 4 4 3 3 4 5 4 5 4 4 4 3 3 2 3 3 2 1 1 2 1 1 2 2 2 2 4 4 5 5 5 5 3 3 3 4 7 6 3 1 1 3 5 5 4 4 4 3 4 5 7 7 6 5
4 4 5 4 4 3 3 4 4 3 5 4 3 2 4 5 4 7 8 6 6 5 5 4 3 3 4 3 3 3 4 3 3 2 1 1 1 1 1 1 1 1 2 2 2 3 5 4 5 4 3 2 1 2 4 5 6 8 7 5 2 3 2 3 4 5 4 2 2 5 5 5 5 5
4 4 4 4 3 2 3 3 3 3 2 3 3 3 3 3 4 5 6 5 5 6 5 4 3 4 4 3 2 3 3 3 2 2 2 1 0 0 1 1 2 2 2 2 2 3 3 3 3 2 1 1 1 1 4 5 6 7 7 6 5 2 1 4 6 7 8 9 7 4 1 0 2 5
5 5 5 5 4 4 3 1 2 3 2 2 3 4 6 5 4 2 3 5 6 5 5 5 4 3 4 3 3 3 2 2 2 2 2 1 0 1 2 2 3 2 1 1 2 3 2 2 2 2 2 2 2 2 4 5 6 5 6 5 4 2 2 1 2 4 6 8 10 9 9 8 7 6
5 5 5 4 3 4 3 3 2 2 3 4 5 6 7 5 4 4 3 3 4 5 6 5 4 3 3 3 3 4 2 2 1 0 0 0 0 1 2 3 2 1 1 1 2 3 3 3 2 1 1 2 1 2 3 4 6 6 5 5 4 2 1 1 2 3 3 3 2 7 9 9 9 9
Wind_Direction
135 125 142 140 146 149 129 115 136 139 135 132 130 130 145 146 127 141 178 239 162 239 192 149 178 124 140 121 38 94 96 101 95 93 89 89 88 81 83 84 86 86 81 77 72 69 63 61 62 64 69 70 66 60 53 53 47 44 41 44 49 46 38 44 59 58 60 52 43 32 26 24 25 25
118 117 116 130 125 133 129 136 141 140 146 144 147 122 79 115 144 157 146 197 212 195 204 214 140 175 159 133 121 84 130 85 90 75 86 82 83 85 83 87 89 90 89 84 80 77 69 56 51 52 55 46 45 58 56 44 42 39 45 32 37 49 42 25 42 59 52 48 40 30 25 22 21 22
103 118 118 117 119 132 127 125 125 133 137 146 139 113 111 69 103 140 128 142 222 179 187 232 239 165 169 163 142 134 67 87 92 86 82 78 78 88 85 83 79 80 80 80 73 79 75 65 55 40 42 46 19 30 17 50 47 58 48 36 15 25 26 33 31 51 47 41 33 24 18 15 17 15
91 120 123 134 138 136 127 132 144 146 150 150 150 144 137 109 127 131 130 141 173 202 176 209 220 180 149 169 168 184 119 121 129 108 87 63 78 55 66 66 66 57 62 66 65 63 64 61 52 42 37 35 7 13 339 334 55 110 304 313 360 360 1 8 9 21 26 19 18 12 9 12 9 0
94 104 109 103 111 136 137 146 144 147 156 152 139 132 136 136 163 146 115 125 123 102 44 146 183 156 147 171 197 176 163 138 151 136 114 121 109 44 26 17 32 49 52 61 70 73 75 70 60 34 22 22 1 325 299 292 260 242 228 250 282 290 305 318 345 343 339 343 348 347 352 356 351 344
66 96 104 96 101 122 135 145 154 156 156 167 163 179 173 172 182 196 108 134 141 176 159 95 26 131 218 184 182 197 184 197 153 194 172 108 113 108 80 33 42 17 15 34 75 90 98 98 55 339 23 42 28 333 305 292 283 260 242 231 241 257 265 275 290 305 306 320 328 328 342 344 334 335
103 94 94 87 104 112 117 131 146 150 172 168 192 197 186 192 191 198 157 129 142 165 193 175 157 173 182 196 192 198 177 148 172 200 206 153 126 149 147 150 153 243 193 204 199 179 142 8 351 10 18 10 13 3 334 310 301 288 266 236 233 240 248 264 275 282 289 295 300 311 326 330 323 329
106 116 100 114 124 124 121 131 145 158 163 187 205 207 202 196 198 208 205 166 135 173 158 207 182 185 170 197 149 150 149 157 174 195 177 167 170 145 150 158 192 202 216 203 201 162 98 23 24 30 22 17 9 359 354 358 340 320 305 269 235 241 249 252 258 265 274 281 291 300 304 313 316 321
123 115 116 146 130 127 124 136 144 162 170 178 185 204 196 196 183 185 200 201 125 146 182 173 227 148 123 96 138 162 150 114 79 21 204 227 166 136 114 152 228 238 94 75 61 56 57 50 45 36 32 23 15 5 359 357 8 25 28 31 269 244 253 258 264 270 275 278 281 290 296 305 306 310
48 114 134 146 143 130 137 161 137 137 163 142 171 184 193 182 172 185 195 178 149 175 179 165 154 184 156 149 135 199 175 153 150 107 55 57 32 102 111 39 62 44 64 81 120 59 46 44 45 38 35 28 25 27 31 44 51 52 50 46 34 357 281 266 266 271 276 281 287 285 288 293 294 301
124 115 132 146 157 145 148 152 166 156 155 163 177 193 182 174 169 181 189 175 159 166 146 114 157 155 82 160 183 171 174 144 166 170 139 78 54 34 123 107 81 79 94 81 71 58 47 44 45 44 49 46 45 50 53 55 57 57 55 51 44 32 8 332 308 301 297 298 298 296 292 292 294 294
137 147 147 170 182 166 169 163 170 161 162 154 153 163 156 159 162 172 164 157 157 155 170 170 169 170 151 109 38 88 134 141 236 205 167 185 159 98 44 35 71 32 61 40 32 44 38 49 52 55 56 48 42 49 57 54 59 60 61 60 56 53 47 37 21 1 340 323 312 307 300 294 290 287
144 141 143 151 176 186 162 164 161 177 162 154 159 175 155 156 159 152 155 162 155 160 166 161 97 149 161 178 150 155 177 193 202 164 134 106 82 122 110 75 48 22 59 62 40 43 22 50 48 46 54 30 27 46 52 61 61 65 71 72 72 70 66 60 52 40 25 5 349 333 316 305 299 290
139 147 160 162 160 175 163 159 161 165 172 179 171 166 165 160 158 167 166 174 184 167 177 191 169 175 197 192 190 186 209 122 79 127 148 134 143 113 90 87 37 3 31 73 67 40 24 58 77 50 59 29 28 38 42 41 69 79 82 84 81 75 67 59 49 38 25 12 358 341 329 318 310 303
279 277 205 210 179 169 165 166 170 170 173 175 177 172 174 171 163 161 175 194 180 185 197 174 175 198 202 206 185 194 154 175 172 164 145 123 144 152 146 155 24 31 9 70 97 61 13 341 107 76 66 46 46 39 56 26 99 102 99 88 81 70 61 52 38 26 8 359 343 331 327 325 323 321
185 224 277 299 297 220 185 171 175 177 161 159 176 179 182 189 191 177 169 170 178 189 186 184 205 188 207 186 173 172 157 154 120 124 140 145 152 142 123 132 135 67 8 106 115 121 12 354 108 108 71 45 76 35 3 345 98 106 102 103 98 91 67 40 20 5 352 342 330 325 324 327 329 328
243 206 223 252 250 223 200 168 171 170 157 102 134 167 177 192 195 209 199 178 183 172 183 195 200 202 176 169 203 194 166 150 132 143 124 134 124 116 120 126 92 348 14 83 84 160 74 2 30 75 120 185 286 274 5 360 329 139 130 127 99 27 341 327 327 334 336 331 328 328 326 326 327 326
254 257 247 261 268 268 254 177 173 162 161 161 153 170 181 179 130 167 207 243 211 186 191 185 205 199 177 181 176 151 148 146 152 150 145 134 122 113 114 126 108 29 319 230 137 121 114 4 342 14 27 126 309 279 289 310 320 318 323 334 319 305 301 300 301 310 321 323 325 324 321 319 320 321
225 220 222 236 252 258 246 232 199 188 185 175 179 183 190 141 13 42 30 21 42 203 175 204 201 144 137 107 113 110 67 102 121 143 147 154 126 114 104 90 77 83 34 21 156 229 108 315 344 288 308 340 307 272 258 268 301 318 320 316 313 311 308 304 306 310 312 313 314 313 311 311 312 314
284 253 226 235 242 242 235 226 207 208 174 174 184 191 187 163 30 46 17 342 275 341 57 75 139 154 154 139 133 143 134 111 113 89 85 82 102 117 127 135 359 80 13 6 75 132 183 44 329 285 297 298 302 287 262 239 269 303 310 307 305 304 301 302 306 307 304 304 304 306 306 307 308 310
283 264 229 227 240 239 239 221 200 204 178 189 192 188 185 187 160 28 13 47 71 104 102 98 95 99 104 110 122 129 130 135 133 113 99 132 140 134 144 148 143 110 323 21 14 110 280 60 334 304 288 306 289 284 287 12 329 313 300 295 305 310 309 308 307 307 306 303 302 302 303 303 307 308
285 271 254 238 239 240 242 223 206 201 189 203 198 186 178 182 195 188 128 101 71 81 81 83 89 94 99 99 96 103 113 128 149 129 161 174 148 151 158 152 136 137 22 31 325 4 351 314 134 312 283 294 240 265 333 316 317 303 313 332 331 323 318 317 313 310 307 306 305 304 302 300 304 300
254 264 258 247 243 241 247 234 216 202 195 211 192 189 179 194 208 194 165 148 134 129 109 99 99 76 73 82 90 79 71 66 60 102 134 140 143 141 133 116 123 124 108 359 306 11 330 349 359 7 330 298 276 334 296 336 342 344 327 317 316 317 323 321 315 309 307 306 306 305 301 298 299 289
276 263 267 257 247 249 251 240 220 207 201 208 198 170 197 202 217 120 130 74 126 130 118 109 78 90 79 77 70 56 57 54 58 73 101 128 120 114 117 111 110 136 165 220 316 66 7 93 312 80 282 304 307 4 349 342 342 319 309 311 308 316 317 312 308 305 304 305 307 303 299 296 295 293
268 274 269 276 284 271 259 245 223 210 208 213 197 196 205 220 140 148 153 160 149 121 117 108 105 98 85 77 77 82 77 74 76 81 75 81 94 115 120 119 119 117 191 226 138 95 309 146 288 143 282 222 278 309 295 320 308 297 302 305 303 301 299 298 302 303 302 302 300 297 294 294 298 301
260 268 291 309 315 314 287 287 273 249 232 221 220 225 247 125 148 160 140 130 137 129 124 118 109 107 105 106 100 96 94 90 84 79 80 77 81 77 115 127 125 126 183 136 148 125 150 275 217 305 284 282 283 284 307 298 271 287 283 283 286 290 288 297 305 298 299 304 301 305 307 306 305 303
280 294 286 270 284 290 251 191 170 182 199 231 230 263 230 157 146 129 134 141 132 121 115 120 120 126 128 123 123 116 109 97 88 93 91 90 86 70 52 53 80 112 106 111 125 141 148 262 201 256 291 280 294 296 272 305 314 292 281 283 288 291 294 300 298 301 303 304 303 305 299 294 294 294
301 299 302 295 263 187 159 166 174 176 169 183 215 43 98 115 126 126 144 142 135 129 127 114 119 127 133 119 118 122 123 116 101 86 73 64 64 79 79 82 83 92 114 126 137 155 169 209 263 230 247 293 302 310 313 304 281 291 297 298 294 295 299 302 303 303 303 305 303 310 317 321 322 320
289 301 300 327 94 135 161 165 155 146 154 151 139 134 140 136 113 126 134 131 124 130 136 136 114 120 117 109 112 116 107 103 90 80 62 54 57 83 106 98 87 76 68 63 112 162 202 209 253 281 268 249 280 284 290 297 301 291 298 314 313 318 314 313 307 307 312 309 310 314 315 311 304 306
318 347 29 35 43 70 104 117 82 76 82 152 155 145 137 133 139 135 148 167 146 139 127 128 133 121 120 109 108 105 113 102 110 116 118 128 118 118 108 105 87 27 46 331 326 182 189 217 240 257 275 264 257 275 274 292 294 290 301 298 301 305 273 302 313 314 312 314 314 313 307 302 299 307
13 21 26 46 47 56 46 49 64 79 99 98 107 120 125 123 116 107 81 43 59 86 117 113 100 93 70 84 110 129 122 113 106 107 128 137 145 124 84 101 118 21 335 317 303 23 338 268 243 198 260 273 267 259 278 283 287 290 297 295 310 317 317 311 303 304 315 312 308 301 302 310 307 286
75 91 65 55 51 47 41 31 15 29 46 72 100 104 104 108 110 114 113 107 105 97 93 94 96 95 125 139 120 84 105 112 110 92 140 150 143 130 131 128 146 238 295 318 321 324 266 250 278 262 238 261 273 286 294 278 277 296 298 291 296 296 290 301 311 316 324 325 321 322 322 318 311 309
44 48 42 52 61 79 99 86 69 30 20 43 88 118 122 119 121 125 131 131 131 135 134 137 134 135 126 107 73 99 109 141 146 281 106 63 120 126 189 145 154 164 317 311 297 303 313 316 211 263 274 272 249 251 277 297 293 289 289 306 316 320 319 305 303 313 328 330 323 320 322 322 318 314
83 49 99 186 175 138 129 129 127 126 93 55 21 4 107 122 126 128 125 126 131 137 136 130 125 129 124 129 137 150 154 137 84 319 283 168 169 141 181 138 140 174 219 293 296 308 319 319 321 305 264 248 228 231 238 264 283 298 313 312 313 314 315 321 318 322 328 314 305 308 313 319 319 327
90 154 192 237 42 201 177 163 166 163 152 156 136 155 112 93 110 116 124 136 135 129 121 116 119 128 142 158 173 176 174 157 138 54 2 20 293 158 162 145 112 23 343 313 305 324 315 331 336 329 321 327 338 274 219 228 266 300 322 323 322 313 317 319 323 326 326 322 322 315 313 316 321 331
200 176 196 202 212 203 209 240 226 177 167 168 161 161 154 152 149 144 143 143 126 124 123 127 133 142 154 167 179 170 148 143 150 166 169 181 134 136 153 103 54 17 296 291 301 310 313 329 1 358 350 345 344 337 342 196 208 302 310 318 324 321 319 321 322 319 320 325 330 323 317 320 321 329
200 192 238 240 245 206 230 243 281 283 307 258 193 167 154 144 135 120 123 124 119 131 139 140 145 152 157 155 151 160 151 148 158 174 163 174 155 145 107 61 38 336 303 298 282 297 300 337 1 4 350 338 337 327 309 338 239 235 286 308 317 318 315 316 319 318 320 324 321 324 316 311 309 316
82 111 253 264 242 242 246 243 197 221 189 161 163 123 98 109 114 113 124 127 132 131 133 135 137 140 137 150 145 136 117 112 108 145 173 177 143 98 82 29 355 315 294 287 289 306 310 323 343 1 343 325 318 314 319 324 332 260 163 321 307 303 307 310 312 313 319 324 316 317 314 307 310 310
178 202 224 235 228 204 210 208 191 189 190 181 166 145 115 100 117 123 131 131 126 128 126 129 142 144 142 140 138 144 146 149 160 166 155 122 112 118 108 23 316 279 283 301 309 325 2 351 353 333 325 306 300 301 300 304 294 297 294 277 266 282 289 300 304 308 309 316 325 325 328 317 271 261
273 258 254 248 257 229 214 182 192 183 182 193 152 115 122 132 137 130 111 102 110 110 124 128 113 108 106 121 127 109 119 156 162 163 145 136 137 134 150 188 255 282 283 295 318 335 346 346 331 320 311 288 281 284 283 267 274 278 279 292 247 219 255 290 284 297 306 317 325 337 347 352 352 339
293 284 271 266 267 210 198 190 175 169 175 158 148 134 127 123 117 110 116 104 111 108 95 108 128 137 135 137 139 135 131 153 155 160 152 148 131 145 233 238 252 255 284 301 320 329 332 332 313 296 280 284 277 269 270 293 299 299 308 301 299 237 233 225 244 268 288 309 320 334 351 348 335 334
302 286 283 268 259 247 216 192 177 182 178 159 161 153 127 118 108 123 113 104 116 122 116 121 117 111 112 123 124 120 129 151 154 157 167 187 133 156 214 257 289 282 287 303 325 314 310 314 303 295 303 310 305 325 305 294 294 306 310 318 320 180 191 205 228 243 252 256 334 346 340 345 352 352
343 325 326 313 284 257 234 218 190 180 148 146 133 122 105 89 99 115 111 125 132 131 133 117 123 130 133 128 125 136 130 161 164 163 174 177 127 358 319 276 270 272 280 288 295 288 299 306 303 316 317 338 334 256 288 293 295 295 304 319 325 327 228 221 238 237 229 236 237 241 251 327 332 336
18 24 21 20 23 16 12 18 81 95 109 103 99 97 100 111 115 123 122 134 137 133 121 114 122 131 128 120 123 123 138 163 174 162 160 160 182 255 259 267 266 272 282 304 316 315 323 327 333 336 332 342 334 286 283 295 298 300 306 304 303 297 290 277 256 236 240 243 241 235 234 232 234 251
27 24 19 24 30 38 37 37 50 75 100 110 108 110 111 108 98 85 49 50 78 95 108 127 136 136 123 137 143 140 155 156 173 201 134 107 182 246 256 267 277 297 323 355 337 322 335 337 331 331 299 302 286 265 280 277 284 298 300 307 303 296 295 302 313 326 324 328 213 211 226 232 238 249